ARIANE 40 R/B, 22830

Orbit data source: Space-Track

ARIANE 40 R/B, 22830 is space debris in SSO originally from a launch on Sun, 26 Sep 1993 UTC launched from the French Guiana (FRGUI). Debris objects in space refer to the collection of defunct objects orbiting the Earth. Examples of debris include non-operational satellites, rocket bodies, and fragments generated from explosions, collisions, or faulty payload assembly.

Loading next visibility...
Identifier
22830, 1993-061H
Orbit
SSO
Last TLE update
14 hours ago
Origin
Manufacturer
Ae/LesM
Mission
Spacecraft
Bus & Motor
ARIANE H10, Unknown motor
Mass
1,875 kg wet, 1,820 kg dry
Launch date (UTC)
1993-09-26 (32 years ago)
Launch vehicle
Unknown
Launch site
French Guiana (FRGUI)
Object type
Payload
Rocket body
Debris
Shape & HBR
Cyl, 11.8 m
Radar Cross Section
26.751 m², Large (>1 m²)

Expand to show TLE details & history

TLE from 14 hours ago
0 ARIANE 40 R/B
1 22830U 93061H   25181.80261966  .00000136  00000-0  65834-4 0  9999
2 22830  98.5263 250.1533 0009742 314.1126  45.9256 14.32670648658033
Epoch: 2025-06-30T19:15Z
TLE epoch observation values (Epoch: 2025-06-30T19:15:46.338Z)
Latitude
-0.00001°
Longitude
42.10303°
Altitude
780.905 km
Speed
7.466 km/s
True Right ascension
16h 40m 36s
True Declination
0° 00' 00"
Sunlit
Object was in full shadow at epoch
Visualization orbit readout
Latitude
-9.54499°
Longitude
-138.74808°
Altitude
791.271 km
Speed
7.456 km/s
Apparent Right ascension
06h 26m 10s
Apparent Declination
-27° 47' 50"
Sunlit
Object is in daylight
Visualization observer readout
Local Sidereal Time
21:11:34
Azimuth
83.323° E
Elevation
-53.954°
Doppler factor
1
Orbital elements
Apogee altitude
786.924 km
Perigee altitude
772.977 km
Semi-major axis
7,158.088 km
Eccentricity
0.00097
Inclination
98.5263°
RAAN
250.1533°
Arg. of periapsis
314.1126°
True anomaly
Unknown
Mean anomaly
45.9256°
Eccentric anomaly
Unknown
Mean motion
3.58383 °/min
Orbital period
100.45 mins
BSTAR
0.000065834
Loading maneuver chart data...
Loading SW <> Apogee altitude chart data...
Loading historical data...
Loading historical data...
Loading historical data...
Loading historical data...
Loading historical data...
Loading historical data...
Loading historical data...

ARIANE 40 R/B Visibility forecast

Observer location: undefined°, undefined°

Span
Click to sort rows by Start time (UTC) header in descending order
Start Az.
Max El. time (UTC)
Max El. Az.
Max El.
End time (UTC)
End Az.
8 mins2025-07-01 17:38:16.437Z8.16° NNE2025-07-01 17:42:16.437Z257.083° W43.819°2025-07-01 17:46:16.437Z201.988° SSW
5 mins2025-07-02 03:17:16.437Z90.865° ESE2025-07-02 03:19:16.437Z63.242° ENE17.395°2025-07-02 03:22:16.437Z25.005° NE
8 mins2025-07-02 04:54:16.437Z185.22° SSW2025-07-02 04:58:16.437Z265.005° W39.42°2025-07-02 05:02:16.437Z334.586° NNW
|